Live-Position
3D-Globus wird geladen...
Über Starlink 3696
Group: 3 satellites
Beschreibung wird geladen...
Nächste Überflüge
Passes for default location (London). Set your location on the main map for personalized predictions.
Höhenverlauf
Loading altitude history...
No altitude history available
Zweizeiliger Elementsatz
1 51965U 22025K 26125.33970771 .00000260 00000-0 20163-4 0 9994
2 51965 53.1609 133.8372 0001345 88.7656 271.3500 15.31697032229505
Epoch: 5. Mai 2026 •
Age: 13 hours
Aktueller Status
Höhe 470.6 km
Geschwindigkeit 7.63 km/s
Subsatellitenpunkt 13.37°N,
116.45°E
Startdatum 9. März 2022
Alter 4.1 years
Typ internet
Startgruppe
Falcon 9 •
Group 4-10 •
40 satellites
Starlink 3700
51956
Starlink 3694 51957
Starlink 3692 51958
Starlink 3704 51959
Starlink 3691 51960
Starlink 3697 51962
Starlink 3675 51963
Starlink 3690 51964
Starlink 3699 51966
Starlink 3681 51968
Starlink 3680 51969
Starlink 3677 51970
Starlink 3669 51971
Starlink 3671 51972
Starlink 3679 51973
Starlink 3672 51974
Starlink 3674 51975
Starlink 3660 51977
Starlink 3649 51980
Starlink 3635 51981
...and 19 more
Technische Details
Klassifizierung Payload
Masse 297.00 kg
Trockenmasse 275.00 kg
Gesamtmasse 297.00 kg
Länge 0.20 m
Durchmesser 2.80 m
Spannweite 9.00 m
Form Box + pan
Hersteller SPXS
Bus-Typ Starlink
Phasenstatus In Orbit
Besitzer/Staat SPXS/US
Most Searched
Loading...